Location: Austin
(30.3000°N, 97.7500°W)
Time: 11:30:44
(UTC-05:00)

Cosmos 1378 - Pass Details

Date: 26 May 2023
Orbit: 464 x 471 km, 82.5° (Epoch: 31 May)

Event Time Altitude Azimuth Distance (km) Brightness Sun altitude
Exits shadow 21:56:37 42° 98° (E) 682 3.4 -17.6°
Maximum altitude 21:56:42 42° 93° (E) 681 3.4 -17.6°
Drops below altitude 10° 22:00:06 10° 21° (NNE) 1,636 5.9 -18.2°
Sets 22:02:15 0° 15° (NNE) 2,517 7.0 -18.6°
